Location: Boiro
(42.6475°N, 8.8834°W)
Time: 17:17:35
(UTC+01:00)

Tiros 1 despin weight - Pass Details

Date: 03 December 2021
Orbit: 592 x 641 km, 48.2° (Epoch: 25 January)

Event Time Altitude Azimuth Distance (km) Brightness Sun altitude
Rises 21:09:07 0° 291° (WNW) 2,828 ? -33.6°
Reaches altitude 10° 21:11:34 10° 282° (WNW) 1,927 ? -34.1°
Enters shadow 21:13:19 20° 266° (W) 1,373 ? -34.4°
